Weather History for Orange, MA

Change the Weather History Date:

Tuesday, January 7, 2014

  Actual Average Record
Temperature  
Mean Temperature 12 °F -  
Max Temperature 21 °F 30 °F 53 °F (2012)
Min Temperature 3 °F 14 °F -2 °F (1999)
Degree Days  
Heating Degree Days 53    
Moisture  
Dew Point -10 °F    
Average Humidity 45    
Maximum Humidity 55    
Minimum Humidity 36    
Precipitation  
Precipitation 0.00 in - - ()
Sea Level Pressure  
Sea Level Pressure 29.96 in    
Wind  
Wind Speed 16 mph (West)    
Max Wind Speed 23 mph    
Max Gust Speed 32 mph    
Visibility 10 miles    
Events      
Averages and records for this station are not official NWS values.
T = Trace of Precipitation, MM = Missing Value Source: NWS Daily Summary

Daily Weather History Graph

Daily Weather History Graph

Search for Another Location

Airport:

Trip Planner

Search our weather history database for the weather conditions in past years. The results will help you decide how hot, cold, wet, or windy it might be!

Date:

Astronomy

Jan. 07, 2014 Rise Set
Actual Time 7:18 AM EST 4:32 PM EST
Civil Twilight 6:47 AM EST 5:04 PM EST
Nautical Twilight 6:11 AM EST 5:39 PM EST
Astronomical Twilight 5:37 AM EST 6:13 PM EST
Moon 10:56 AM EST (1/7) No Moon Set
Length of Visible Light 10h 16m
Length of Day
9h 13m
Waxing Crescent, 45% of the Moon is Illuminated
Jan 7
Waxing Crescent
Jan 7
First Quarter
Jan 15
Full
Jan 24
Last Quarter
Jan 30
New

Hourly Weather History & Observations

Time (EST) Temp. Windchill Dew Point Humidity Pressure Visibility Wind Dir Wind Speed Gust Speed Precip Events Conditions
12:52 AM 21.0 °F 4.6 °F 7.0 °F 55% 29.56 in 10.0 mi WNW 23.0 mph 32.2 mph N/A   Overcast
1:52 AM 14.0 °F -2.0 °F -5.1 °F 43% 29.62 in 10.0 mi WNW 16.1 mph 28.8 mph N/A   Mostly Cloudy
2:52 AM 12.0 °F -2.0 °F -6.0 °F 44% 29.68 in 10.0 mi NW 11.5 mph - N/A   Overcast
3:52 AM 10.0 °F -6.5 °F -7.1 °F 46% 29.70 in 10.0 mi WNW 15.0 mph 24.2 mph N/A   Overcast
4:52 AM 8.1 °F -9.6 °F -8.0 °F 48% 29.74 in 10.0 mi WNW 16.1 mph 28.8 mph N/A   Partly Cloudy
5:52 AM 7.0 °F -11.6 °F -9.0 °F 48% 29.78 in 10.0 mi WNW 17.3 mph 28.8 mph N/A   Clear
6:52 AM 7.0 °F -11.6 °F -9.0 °F 48% 29.82 in 10.0 mi WNW 17.3 mph 31.1 mph N/A   Clear
7:52 AM 6.1 °F -10.9 °F -7.1 °F 55% 29.86 in 10.0 mi West 13.8 mph 23.0 mph N/A   Partly Cloudy
8:52 AM 7.0 °F -13.1 °F -7.1 °F 53% 29.92 in 10.0 mi West 20.7 mph 29.9 mph N/A   Mostly Cloudy
9:52 AM 7.0 °F -10.4 °F -6.0 °F 55% 29.96 in 10.0 mi West 15.0 mph 27.6 mph N/A   Overcast
10:52 AM 9.0 °F -8.5 °F -9.0 °F 44% 29.96 in 10.0 mi WNW 16.1 mph 31.1 mph N/A   Scattered Clouds
11:52 AM 10.0 °F -5.2 °F -9.9 °F 40% 29.96 in 10.0 mi West 12.7 mph 20.7 mph N/A   Partly Cloudy
12:52 PM 9.0 °F -8.5 °F -11.9 °F 38% 29.96 in 10.0 mi WNW 16.1 mph 24.2 mph N/A   Clear
1:52 PM 9.0 °F -9.0 °F -13.0 °F 36% 29.99 in 10.0 mi West 17.3 mph 23.0 mph N/A   Scattered Clouds
2:52 PM 7.0 °F -11.0 °F -13.0 °F 40% 30.03 in 10.0 mi West 16.1 mph 26.5 mph N/A   Clear
3:52 PM 7.0 °F -9.1 °F -15.0 °F 36% 30.07 in 10.0 mi West 12.7 mph 26.5 mph N/A   Scattered Clouds
4:52 PM 6.1 °F -11.6 °F -14.1 °F 39% 30.09 in 10.0 mi West 15.0 mph 21.9 mph N/A   Overcast
5:52 PM 5.0 °F -9.1 °F -13.0 °F 43% 30.12 in 10.0 mi WSW 9.2 mph 24.2 mph N/A   Clear
6:52 PM 5.0 °F -8.1 °F -13.0 °F 43% 30.15 in 10.0 mi SW 8.1 mph - N/A   Clear
7:52 PM 5.0 °F -10.0 °F -14.1 °F 41% 30.17 in 10.0 mi West 10.4 mph - N/A   Clear
8:52 PM 5.0 °F -9.1 °F -14.1 °F 41% 30.19 in 10.0 mi SW 9.2 mph - N/A   Clear
9:52 PM 3.9 °F -9.4 °F -13.0 °F 46% 30.20 in 10.0 mi SSW 8.1 mph - N/A   Clear
10:52 PM 5.0 °F -8.1 °F -11.9 °F 46% 30.21 in 10.0 mi SSW 8.1 mph - N/A   Clear
11:52 PM 3.9 °F -12.2 °F -9.9 °F 53% 30.22 in 10.0 mi SSW 11.5 mph - N/A   Clear